Location: Hertford
(51.8000°N, 0.0667°W)
Time: 12:37:18
(UTC+00:00)

Cosmos 1092 Rocket - Pass Details

Date: 18 September 2020
Orbit: 954 x 995 km, 82.9° (Epoch: 25 October)

Event Time Altitude Azimuth Distance (km) Brightness Sun altitude
Rises 19:47:23 0° 351° (N) 3,647 7.5 -15.9°
Reaches altitude 10° 19:49:56 10° 355° (N) 2,698 6.7 -16.2°
Maximum altitude 19:56:03 62° 76° (ENE) 1,072 4.0 -17.1°
Enters shadow 20:00:16 21° 152° (SSE) 2,022 5.2 -17.7°
